COSMOS 1275 DEB

Satellite information

Favourite Embed

Satellite Type and Status

DEBRISIN ORBIT

Key statistics

Satellite COSMOS 1275 DEB at a glance.

Uptime

16207

Days in orbit

Revolutions

≈ 14.2

Per day

Orbit

LEO

Low Earth Orbit

Inclination

82.9

Latest

Satellite identification and parameters

Extended collection of information and parameters for COSMOS 1275 DEB.

Object identification

Identified? True

Debris? True

Object name: COSMOS 1275 DEB

International designator: 1981-053GD

Object number (NORAD): 13483

Object ID (CCSDS): 13483

Country: COMMONWEALTH OF INDEPENDENT STATES (CIS)

Current information (Y/N): Y

RCS size: SMALL

Orbital parameters

Period: 101.313 minutes

Inclination: 82.9187 deg

SMA: 7198.972 km

Apoapsis: 829.118 km

Periapsis: 812.557 km

RAAN: 281.3468 deg

Eccentricy: 0.00115023

Argument of periapsis: 104.3197 deg

Mean anomaly: 331.0822 deg

Mean motion: 14.21336797 rev/day

Mean motion (dot): 0.00004407 rev/day2

B* drag term: 0.002011693 1/REarth

Two-line elements (TLE)

Creation date: Oct. 17, 2025, 2:15 a.m.

Reference frame: TEME

Reference center: EARTH

Epoch: Oct. 16, 2025, 10:01 p.m. UTC

TLE line 0: 0 COSMOS 1275 DEB

TLE line 1: 1 13483U 81053GD 25289.91803797 .00004407 00000-0 20117-2 0 9994

TLE line 2: 2 13483 82.9187 281.3468 0011502 104.3197 331.0822 14.21336797212830

Live tracking on map

Real-time ground track for satellite COSMOS 1275 DEB.

In-orbit conjunctions

A list of the most updated potential collisions computed for object COSMOS 1275 DEB.

Target Orbit TCA Probability of collision Miss distance Type
SL-16 DEB LEO 2025-02-09 01:56:34 0.0001730076 217.0 (m) DEBRIS
NOAA 16 DEB SSO 2024-11-11 05:35:11 0.0001964444 314.0 (m) DEBRIS
SL-3 R/B LEO 2024-11-09 15:01:38 0.0007002727 687.0 (m) ROCKET BODY

Associated space launch

Navigation satellite providing location information for the Tsiklon-B navigation system

COSMOS 1275 DEB was lifted into orbit during the mission ‘Kosmos-3M | Parus 27’, on board a Kosmos-3M space rocket.

The launch took place on June 4, 1981, 3:41 p.m. from 132/2.

For more information about the launch, click the button.

Launch to space Kosmos-3M | Parus 27
Kosmos-3M | Parus 27

Agency: N/A

Status: Launch Successful

Launch date: June 4, 1981, 3:41 p.m. UTC

Rocket: Kosmos-3M

Launch pad: 132/2

Location: Plesetsk Cosmodrome, Russian Federation

...

Latest news about this satellite

There are no fresh news available about this satellite. Check back as we update our databases every day.


Newsletter sign-up

Weekly statistics, charts and insights to help you stay on top of the space industry.